{"data":{"norad_id":63238,"intl_designator":"2025-052AE","name":"TEVEL2-7","alt_names":[],"object_type":"PAYLOAD","status":"ACTIVE","operator":null,"country":"ISRA","launch_date":"2025-03-15","launch_site_code":"AFWTR","launch_vehicle":null,"mission":null,"orbit_class":"UNKNOWN","rcs_meters":null,"size_class":null,"mass_kg":null,"dimensions":null,"purposes":["comms"],"wikipedia_slug":null,"has_3d_model":false,"image_url":null,"decayed_at":null,"tle_current":{"epoch":"2026-05-25T03:06:04.304736Z","epoch_age_seconds":74321,"freshness":"FRESH","line1":"1 63238U 25052AE  26145.12921649  .00014195  00000+0  47881-3 0  9998","line2":"2 63238  97.3970  40.4357 0005072 206.1899 153.9086 15.30807276 66497","mean_motion":15.30807276,"eccentricity":0.0005072,"inclination_deg":97.397,"raan_deg":40.4357,"arg_perigee_deg":206.1899,"mean_anomaly_deg":153.9086,"bstar":0.00047881,"rev_number":6649,"period_min":94.068013823577,"perigee_km":469.92735138573,"apogee_km":476.87755300603,"semimajor_km":6851.5394521959,"source":"CELESTRAK","updated_at":"2026-05-25T13:38:23.298244Z"}}}